Location: New Plymouth
(39.0670°S, 174.0830°E)
Time: 07:26:57
(UTC+13:00)

NOAA 19 - Pass Details

Date: 19 August 2019
Orbit: 840 x 862 km, 99.2° (Epoch: 13 October)

Event Time Altitude Azimuth Distance (km) Brightness Sun altitude
Rises 19:23:58 0° 185° (S) 3,453 8.4 -19.0°
Reaches altitude 10° 19:27:20 10° 206° (SSW) 2,512 8.0 -19.6°
Maximum altitude 19:30:26 15° 240° (WSW) 2,145 8.1 -20.2°
Drops below altitude 10° 19:33:32 10° 274° (W) 2,505 8.8 -20.8°
Sets 19:36:54 0° 296° (WNW) 3,436 9.5 -21.5°
